Regional Weather Roundup
Issued by NWS Austin/San Antonio, TX

Home | Current Version | Previous Version | Text Only | Print | Product List | Glossary On
Versions: 1 2 3 4 5 6 7 8 9 10 11 12 13 14 15 16 17 18 19 20 21 22 23 24 25 26 27 28 29 30 31 32 33 34 35 36 37 38 39 40 41 42 43 44 45 46 47 48 49 50
000
ASUS44 KEWX 232202
RWREWX
SOUTH TEXAS REGIONAL WEATHER ROUNDUP
NATIONAL WEATHER SERVICE AUSTIN/SAN ANTONIO TX
500 PM CDT SUN JUL 23 2017

NOTE: "FAIR" INDICATED FEW OR NO CLOUDS BELOW 12,000 FEET WITH NO
SIGNIFICANT WEATHER AND/OR OBSTRUCTIONS TO VISIBILITY.

* - THESE STATIONS ARE NOT NWS OR FAA STATIONS...AND ARE NOT SUBJECT
    TO NWS AND FAA QUALITY CONTROL.

TXZ171-172-183>190-232300-
TEXAS HILL COUNTRY AND EDWARDS PLATEAU

CITY           SKY/WX    TMP DP  RH WIND       PRES   REMARKS
JUNCTION       LGT RAIN  76  71  85 SE10      29.94R
*LLANO         FAIR      75  72  88 S6        29.98S
BURNET         FAIR      78  67  68 SW9       29.97R
*HORSESHOE BAY FAIR      73  70  89 S8        29.95F
*KERRVILLE     CLOUDY    76  71  85 N21G39    29.96R VSB 1/4
*FREDERICKSBRG LGT RAIN  71  66  86 E9        29.98F
*ROCKSPRINGS   FAIR      97  61  30 CALM      29.94F HX  97
*BOERNE STAGE  PTSUNNY   77  64  65 N20G30    30.00R
*CASTROVILLE   FAIR     100  58  24 SE12      29.87R HX 100
HONDO          FAIR     103  61  25 SE16      29.85S HX 104
*UVALDE        FAIR      98  60  28 SE8       29.85S HX  98
DEL RIO        FAIR     102  58  23 E10G18    29.81F HX 102
LAUGHLIN AFB   NOT AVBL
CARRIZO SPRGS  FAIR     104  59  22 SE13      29.79F HX 104
*EAGLE PASS    NOT AVBL
$$

TXZ173-191>194-202-209-217>225-228-232300-
CENTRAL AND SOUTH CENTRAL TEXAS

CITY           SKY/WX    TMP DP  RH WIND       PRES   REMARKS
GEORGETOWN     MOSUNNY   97  73  46 W12       29.87F HX 107
AUSTIN/BERGSTM CLOUDY    97  68  38 SW5       29.85R THUNDER HX 102
AUSTIN/MABRY   FAIR      85  71  63 NW10G23   29.90R THUNDER HX  90
*AUSTIN/EXEC     N/A     90  72  55 W10       29.87S HX  96
*LAGO VISTA    FAIR      80  71  72 W12       29.93F
SAN MARCOS     PTSUNNY   97  64  34 S10       29.87  HX  99
NEW BRAUNFELS  PTSUNNY   98  65  33 S9        29.85R HX 101
RANDOLPH AFB   FAIR      98  61  29 SE6G16    29.87R HX  99
PT SAN ANTONIO FAIR     100  64  30 SE5       29.84R HX 102
SAN ANTONIO    PTSUNNY   97  63  32 E8        29.87R HX  98
STINSON FIELD  FAIR     102  63  27 VRB5      29.83R HX 104
*LA GRANGE     FAIR     100  71  40 S9        29.83S HX 108
*GIDDINGS      FAIR      97  64  32 S7G16     29.86R HX  99
*GONZALES      FAIR     100  71  39 S8        29.84S HX 107
$$

TXZ163>164-176>182-195>201-210>213-226-227-235-232300-
SOUTHEAST TEXAS

CITY           SKY/WX    TMP DP  RH WIND       PRES   REMARKS
COLLEGE STN    FAIR      99  67  35 SE13G21   29.83F HX 103
*BRYAN         FAIR      97  69  39 S10G18    29.85S HX 102
*CALDWELL      NOT AVBL
*CROCKETT      PTSUNNY   93  75  55 SW7       29.88S HX 104
*BRENHAM       FAIR      97  67  37 S8        29.85S HX 101
HUNTSVILLE     FAIR      93  72  50 VRB6      29.87F HX 101
CONROE         FAIR      93  75  55 S13       29.86F HX 104
HOUSTON BUSH   PTSUNNY   89  75  63 NW3       29.87F HX  99
HOUSTON HOBBY  PTSUNNY   94  74  52 S13       29.87F HX 104
*HOUSTON SW AP FAIR      90  75  61 S6        29.89F HX 101
PEARLAND       FAIR      93  72  50 SW9       29.90F HX 101
HOUSTON HOOKS  PTSUNNY   92  74  55 S8        29.87F HX 101
ELLINGTON FLD  PTSUNNY   95  75  52 S12       29.90F HX 107
SUGAR LAND     FAIR      93  74  53 S16       29.87F HX 103
*HOUSTON EXEC  FAIR      95  75  52 S18       29.88S HX 107
*CLEVELAND MUN FAIR      89  75  64 S6        29.89F HX  98
*WHARTON       FAIR      91  69  47 S17       29.88F HX  96
*COLUMBUS      FAIR      96  69  41 SE12G18   29.86F HX 100
*EAGLE LAKE    FAIR      97  71  43 S13       29.86F HX 105
$$

TXZ214>216-236>238-232300-
THE UPPER TEXAS COAST

CITY           SKY/WX    TMP DP  RH WIND       PRES   REMARKS
*ORANGE        TSTM      76  72  88 NW5G21    29.95R
PORT ARTHUR    CLOUDY    81  76  84 CALM      29.91S
GALVESTON      FAIR      89  77  67 S20G25    29.91F HX 101
ANGLETON       FAIR      91  76  61 S18G24    29.90F HX 103
*BAY CITY      PTSUNNY   91  74  58 S17       29.89F HX 100
PALACIOS       FAIR      88  74  63 S17       29.88F HX  96
$$

TXZ229>234-239>247-232300-
TEXAS COASTAL BEND AND RIO GRANDE PLAINS

CITY           SKY/WX    TMP DP  RH WIND       PRES   REMARKS
VICTORIA       FAIR      94  73  50 S22G31    29.86F HX 103
*BEEVILLE      FAIR      98  75  48 SE13G23   29.84S HX 110
ROCKPORT       FAIR      91  75  59 S16G30    29.85F HX 101
*PORT ARANSAS  FAIR      87  75  66 S21G28    29.86F HX  97
*PORT LAVACA   FAIR      89  72  56 S17G24    29.88F HX  97
*INGLESIDE     FAIR      91  77  62 MISG      29.85F HX 104
CORPUS CHRISTI FAIR      94  75  54 SE21G31   29.83F HX 105
CORPUS NAS     FAIR      92  78  63 SE24G32   29.85F HX 107
*ROBSTOWN      FAIR      97  71  43 SE22      29.83F HX 104
ALICE          FAIR      99  68  36 SE23G31   29.80F HX 104
KINGSVILLE NAS FAIR      97  76  50 SE25G36   29.81F HX 110
COTULLA        FAIR     104  56  20 SE14      29.79F HX 103
*FAITH RANCH   SUNNY    104  57  21 SE9       29.79F HX 103
LAREDO         FAIR     103  64  28 S15         N/A  HX 106
$$

TXZ248>255-232300-
DEEP SOUTH TEXAS

CITY           SKY/WX    TMP DP  RH WIND       PRES   REMARKS
BROWNSVILLE    FAIR      91  74  57 S24G32    29.87F HX 100
PORT ISABEL    FAIR      94  72  48 S24G32    29.86F HX 102
*SOUTH PADRE   NOT AVBL
HARLINGEN      FAIR      97  69  40 S28G38    29.84F HX 103
*HEBBRONVILLE  FAIR     100  56  22 S13G20    29.82F HX  98
MCALLEN        FAIR     100  71  39 SE23G30   29.82F HX 108
*WESLACO       FAIR      97  67  37 S23       29.83F HX 101
FALFURRIAS     FAIR     100  60  26 SE18G26   29.81F HX 101
EDINBURG       FAIR     101  63  28 SE18G26   29.82F HX 103
*ZAPATA        FAIR     105  57  21 SE13G18   29.77F HX 104
$$

TXZ213>215-236>238-242>244-246-247-251-254-255-232300-
CMAN STATIONS

STATION/POSITION TIME  TEMP    WIND        PRES    WAVE
                       AIR SEA DIR/SP/G            HT/PER
                 (UTC) (F)     (DEG/KT/KT) (MB)    (FT/S)
SABINE PASS      2130   87 88  200/ 12/ 19 1014.6
SEA RIM ST PARK  2100   87     220/ 17/ 20 1013.7
NORTH JETTY/GLS  2130      87  200/ 19/ 21 1012.5
EAGLE POINT      2130   87 89  210/ 19/ 22 1012.7
MORGANS POINT    2130   91 88  210/  8/ 11 1012.2
MISSION/ARANSAS  2100          160/ 21     1012.0
PORT O`CONNOR    2130   86     180/ 18/ 21 1011.7
PORT ARANSAS     2100   85 87  150/ 23/ 25 1012.0
MALAQUITE BEACH  2130   85 87  140/ 25/ 29 1010.3
BAFFIN BAY       2130   86 90              1011.1
PORT ISABEL      2130   87 85              1012.0
$$



USA.gov is the U.S. government's official web portal to all federal, state and local government web resources and services.